User: anonymous   Login
Location: Unspecified
(0.0000°N, 0.0000°E)
Time: 06:45:02
(UTC+00:00)
Language:

Meteosat 1 - Orbit

View from above orbital plane
View from above orbital plane
View from above satellite
View from above satellite

Ground track
Ground track

The orbit data is extracted from the following two-line orbital elements,

1 10489U 77108A   17087.80922391 +.00000126 +00000-0 +00000-0 0  9991
2 10489 012.5176 321.6734 0014130 355.0448 194.4368 01.00346702103440
Epoch (UTC): 28 March 2017 19:25:16
Eccentricity: 0.0014130
inclination: 12.5176°
perigee height: 35705 km
apogee height: 35825 km
right ascension of ascending node: 321.6734°
argument of perigee: 355.0448°
revolutions per day: 1.00346702
mean anomaly at epoch: 194.4368°
orbit number at epoch: 10344

The dashed part of the orbit path shows where the satellite is in the earth's shadow,  

DLR